Вернуться в каталог

STARLINK-37546

АктивенСвязьVLEO
NORAD 69467·PAYLOAD·🇺🇸 United States

Запущен Jun 8, 2026 с Cape Canaveral Space Force Station

Loading…

Ближайшие Пролёты (ближайшие 24 часа)

TLE

СвежийSource: CelesTrak SupGP

Эпоха: Sep 14, 2026, 21:08 UTC

1 69467C 26127AA  26257.88104167  .00015951  00000+0  47102-3 0  2571
2 69467  53.1572 192.0695 0001381 105.5641  54.4697 15.34399019    14

Отслеживайте STARLINK-37546 в реальном времени с AllMySat

Download on the App Store